Hollywood, FL

11:57 AM EDT on March 27, 2017 (GMT -0400)
North Perry

Weather History for KHWO - January, 2012

Change the Weather History Date:

Friday, January 13, 2012

  Actual Average (KFLL) Record (KFLL)
Temperature  
Mean Temperature 68 °F -  
Max Temperature 72 °F 76 °F 86 °F (1933)
Min Temperature 63 °F 56 °F 32 °F (1981)
Cooling Degree Days 2    
Growing Degree Days 18 (Base 50)    
Moisture  
Dew Point 60 °F    
Average Humidity 75    
Maximum Humidity 93    
Minimum Humidity 63    
Precipitation  
Precipitation 0.00 in - - ()
Sea Level Pressure  
Sea Level Pressure 30.12 in    
Wind  
Wind Speed 4 mph (NW)    
Max Wind Speed 12 mph    
Max Gust Speed 17 mph    
Visibility 9 miles    
Events      
Averages and records for this station are not official NWS values.
T = Trace of Precipitation, MM = Missing Value Source: NWS Daily Summary

Daily Weather History Graph

Daily Weather History Graph

Search for Another Location

Airport or City:

Trip Planner

Search our weather history database for the weather conditions in past years. The results will help you decide how hot, cold, wet, or windy it might be!

Date:

Astronomy

Jan. 13, 2012 Rise Set
Actual Time 7:09 AM EST 5:49 PM EST
Civil Twilight 6:44 AM EST 6:14 PM EST
Nautical Twilight 6:16 AM EST 6:42 PM EST
Astronomical Twilight 5:48 AM EST 7:10 PM EST
Moon 10:24 PM EST (1/13) 9:55 AM EST (1/13)
Length of Visible Light 11h 29m
Length of Day
10h 39m
Waning Gibbous, 79% of the Moon is Illuminated
Jan 13
Waning Gibbous
Jan 16
Last Quarter
Jan 23
New
Jan 30
First Quarter
Feb 7
Full

Hourly Weather History & Observations

Time (EST) Temp. Dew Point Humidity Pressure Visibility Wind Dir Wind Speed Gust Speed Precip Events Conditions
12:53 AM 69.1 °F 62.1 °F 78% 30.03 in 10.0 mi SW 3.5 mph - N/A   Scattered Clouds
1:53 AM 69.1 °F 62.1 °F 78% 30.04 in 10.0 mi WSW 3.5 mph - N/A   Mostly Cloudy
2:53 AM 68.0 °F 63.0 °F 84% 30.05 in 10.0 mi WSW 4.6 mph - N/A   Overcast
3:53 AM 66.9 °F 64.0 °F 90% 30.05 in 10.0 mi Calm Calm - 0.00 in   Overcast
4:53 AM 66.9 °F 64.0 °F 90% 30.06 in 10.0 mi Calm Calm - N/A   Mostly Cloudy
5:53 AM 66.0 °F 64.0 °F 93% 30.08 in 10.0 mi Calm Calm - N/A   Overcast
6:53 AM 66.0 °F 64.0 °F 93% 30.09 in 10.0 mi SSW 3.5 mph - 0.00 in   Overcast
7:53 AM 66.9 °F 64.9 °F 93% 30.11 in 10.0 mi Calm Calm - N/A   Scattered Clouds
9:53 AM 72.0 °F 63.0 °F 73% 30.16 in 10.0 mi WNW 11.5 mph 17.3 mph N/A   Partly Cloudy
10:53 AM 70.0 °F 62.1 °F 76% 30.14 in 9.0 mi NNW 8.1 mph - N/A   Scattered Clouds
11:53 AM 70.0 °F 60.1 °F 71% 30.14 in 9.0 mi NNW 10.4 mph - N/A   Scattered Clouds
12:53 PM 71.1 °F 60.1 °F 68% 30.12 in 7.0 mi North 6.9 mph - N/A   Partly Cloudy
1:53 PM 71.1 °F 60.1 °F 68% 30.12 in 7.0 mi North 5.8 mph - N/A   Clear
2:53 PM 71.1 °F 60.1 °F 68% 30.11 in 8.0 mi Variable 3.5 mph - N/A   Scattered Clouds
3:53 PM 72.0 °F 59.0 °F 64% 30.12 in 7.0 mi NW 4.6 mph - N/A   Clear
4:53 PM 71.1 °F 57.9 °F 63% 30.12 in 6.0 mi NNW 4.6 mph - N/A   Haze
5:53 PM 69.1 °F 57.0 °F 65% 30.14 in 6.0 mi NNE 3.5 mph - N/A   Haze
6:53 PM 68.0 °F 57.9 °F 70% 30.16 in 8.0 mi Calm Calm - N/A   Mostly Cloudy
7:53 PM 66.9 °F 57.0 °F 70% 30.16 in 7.0 mi North 5.8 mph - N/A   Mostly Cloudy
8:53 PM 66.0 °F 55.0 °F 68% 30.18 in 8.0 mi NNW 3.5 mph - N/A   Mostly Cloudy
9:53 PM 64.9 °F 53.1 °F 65% 30.18 in 9.0 mi Calm Calm - N/A   Partly Cloudy
10:53 PM 63.0 °F 53.1 °F 70% 30.18 in 10.0 mi WNW 4.6 mph - N/A   Partly Cloudy
11:53 PM 64.0 °F 53.1 °F 67% 30.19 in 10.0 mi NW 9.2 mph - N/A   Overcast